| time (UTC) | temp F | wind direction | speed MPH | gust MPH | rain 1hr in | rain 24hr in | rain mn in | humidity % | barometer mb |
| 20260507151653 | 52 | 247 | 5.0 | 9.0 | 0.00 | 0.00 | 0.00 | 50 | 1011.6 |
| 20260507151147 | 52 | 180 | 5.0 | 10.0 | 0.00 | 0.00 | 0.00 | 51 | 1011.6 |
| 20260507150640 | 51 | 240 | 5.0 | 10.0 | 0.00 | 0.00 | 0.00 | 51 | 1011.6 |
| 20260507150130 | 51 | 261 | 5.0 | 10.0 | 0.00 | 0.00 | 0.00 | 50 | 1011.7 |
| 20260507145628 | 51 | 241 | 5.0 | 10.0 | 0.00 | 0.00 | 0.00 | 53 | 1011.7 |
| 20260507145342 | 51 | 185 | 5.0 | 10.0 | 0.00 | 0.00 | 0.00 | 52 | 1011.7 |
| 20260507144616 | 50 | 263 | 5.0 | 10.0 | 0.00 | 0.00 | 0.00 | 54 | 1011.9 |
| 20260507144111 | 50 | 212 | 4.0 | 9.0 | 0.00 | 0.00 | 0.00 | 52 | 1011.9 |
| 20260507143605 | 50 | 208 | 4.0 | 8.0 | 0.00 | 0.00 | 0.00 | 56 | 1011.9 |
| 20260507143059 | 49 | 200 | 4.0 | 8.0 | 0.00 | 0.00 | 0.00 | 55 | 1011.8 |
| 20260507142549 | 49 | 236 | 3.0 | 7.0 | 0.00 | 0.00 | 0.00 | 55 | 1011.8 |
| 20260507142049 | 49 | 213 | 3.0 | 7.0 | 0.00 | 0.00 | 0.00 | 57 | 1011.8 |
| 20260507141537 | 49 | 204 | 3.0 | 7.0 | 0.00 | 0.00 | 0.00 | 56 | 1012.0 |
| 20260507141030 | 49 | 192 | 3.0 | 7.0 | 0.00 | 0.00 | 0.00 | 56 | 1012.0 |
| 20260507140524 | 48 | 236 | 4.0 | 7.0 | 0.00 | 0.00 | 0.00 | 57 | 1012.0 |
| 20260507140239 | 48 | 196 | 4.0 | 8.0 | 0.00 | 0.00 | 0.00 | 59 | 1012.2 |
| 20260507135508 | 48 | 228 | 3.0 | 8.0 | 0.00 | 0.00 | 0.00 | 59 | 1012.2 |
| 20260507134959 | 47 | 184 | 3.0 | 7.0 | 0.00 | 0.00 | 0.00 | 59 | 1012.2 |
| 20260507134459 | 47 | 244 | 4.0 | 9.0 | 0.00 | 0.00 | 0.00 | 58 | 1012.3 |
| 20260507134000 | 47 | 230 | 4.0 | 9.0 | 0.00 | 0.00 | 0.00 | 60 | 1012.3 |
| 20260507133459 | 47 | 223 | 3.0 | 7.0 | 0.00 | 0.00 | 0.00 | 60 | 1012.3 |
| 20260507132959 | 46 | 269 | 4.0 | 7.0 | 0.00 | 0.00 | 0.00 | 61 | 1012.3 |
| 20260507132500 | 46 | 251 | 4.0 | 8.0 | 0.00 | 0.00 | 0.00 | 61 | 1012.3 |
| 20260507132000 | 45 | 254 | 4.0 | 8.0 | 0.00 | 0.00 | 0.00 | 61 | 1012.3 |
| 20260507131500 | 45 | 206 | 3.0 | 7.0 | 0.00 | 0.00 | 0.00 | 63 | 1012.2 |
| 20260507131044 | 44 | 248 | 3.0 | 6.0 | 0.00 | 0.00 | 0.00 | 65 | 1012.2 |
| 20260507125942 | 43 | 209 | 2.0 | 6.0 | 0.00 | 0.00 | 0.00 | 65 | 1011.9 |
| 20260507125429 | 43 | 219 | 2.0 | 4.0 | 0.00 | 0.00 | 0.00 | 67 | 1011.9 |
| 20260507124923 | 42 | 236 | 2.0 | 4.0 | 0.00 | 0.00 | 0.00 | 67 | 1011.9 |
| 20260507124418 | 42 | 237 | 2.0 | 4.0 | 0.00 | 0.00 | 0.00 | 69 | 1011.9 |
| 20260507123906 | 41 | 225 | 2.0 | 4.0 | 0.00 | 0.00 | 0.00 | 70 | 1011.9 |
| 20260507123406 | 41 | 223 | 2.0 | 4.0 | 0.00 | 0.00 | 0.00 | 70 | 1011.9 |
| 20260507122901 | 41 | 217 | 2.0 | 4.0 | 0.00 | 0.00 | 0.00 | 71 | 1011.9 |
| 20260507122354 | 40 | 221 | 1.0 | 4.0 | 0.00 | 0.00 | 0.00 | 70 | 1011.9 |
| 20260507121848 | 40 | 125 | 0.0 | 2.0 | 0.00 | 0.00 | 0.00 | 72 | 1011.9 |
| 20260507121342 | 39 | 125 | 1.0 | 2.0 | 0.00 | 0.00 | 0.00 | 72 | 1011.9 |
| 20260507120835 | 39 | 125 | 1.0 | 2.0 | 0.00 | 0.00 | 0.00 | 72 | 1011.9 |
| 20260507120325 | 39 | 125 | 1.0 | 2.0 | 0.00 | 0.00 | 0.00 | 73 | 1011.9 |
| 20260507115814 | 38 | 125 | 0.0 | 2.0 | 0.00 | 0.00 | 0.00 | 73 | 1011.9 |
| 20260507115313 | 38 | 122 | 0.0 | 2.0 | 0.00 | 0.00 | 0.00 | 74 | 1011.9 |
| 20260507114808 | 38 | 122 | 0.0 | 0.0 | 0.00 | 0.00 | 0.00 | 74 | 1011.8 |
| 20260507114524 | 38 | 122 | 0.0 | 0.0 | 0.00 | 0.00 | 0.00 | 74 | 1011.8 |
| 20260507113756 | 37 | 235 | 0.0 | 0.0 | 0.00 | 0.00 | 0.00 | 75 | 1011.8 |
| 20260507113245 | 37 | 235 | 0.0 | 2.0 | 0.00 | 0.00 | 0.00 | 76 | 1011.7 |
| 20260507112744 | 37 | 235 | 0.0 | 2.0 | 0.00 | 0.00 | 0.00 | 76 | 1011.7 |
| 20260507112458 | 37 | 235 | 1.0 | 2.0 | 0.00 | 0.00 | 0.00 | 76 | 1011.7 |
| 20260507111732 | 36 | 235 | 1.0 | 2.0 | 0.00 | 0.00 | 0.00 | 77 | 1011.7 |
| 20260507111225 | 36 | 235 | 1.0 | 3.0 | 0.00 | 0.00 | 0.00 | 77 | 1011.7 |
| 20260507110714 | 36 | 235 | 2.0 | 3.0 | 0.00 | 0.00 | 0.00 | 77 | 1011.7 |
| 20260507110213 | 36 | 235 | 2.0 | 3.0 | 0.00 | 0.00 | 0.00 | 77 | 1011.6 |
| 20260507105708 | 36 | 235 | 1.0 | 3.0 | 0.00 | 0.00 | 0.00 | 77 | 1011.6 |
| 20260507105209 | 36 | 235 | 1.0 | 2.0 | 0.00 | 0.00 | 0.00 | 77 | 1011.6 |
| 20260507104709 | 36 | 235 | 1.0 | 3.0 | 0.00 | 0.00 | 0.00 | 77 | 1011.8 |
| 20260507104211 | 36 | 235 | 2.0 | 3.0 | 0.00 | 0.00 | 0.00 | 77 | 1011.8 |
| 20260507103926 | 36 | 235 | 2.0 | 3.0 | 0.00 | 0.00 | 0.00 | 77 | 1011.8 |
| 20260507103207 | 36 | 235 | 2.0 | 3.0 | 0.00 | 0.00 | 0.00 | 77 | 1011.8 |
| 20260507102706 | 36 | 235 | 2.0 | 3.0 | 0.00 | 0.00 | 0.00 | 77 | 1011.8 |
| 20260507102207 | 36 | 235 | 2.0 | 3.0 | 0.00 | 0.00 | 0.00 | 77 | 1011.8 |
| 20260507101706 | 36 | 235 | 2.0 | 3.0 | 0.00 | 0.00 | 0.00 | 77 | 1011.8 |
| 20260507101207 | 36 | 238 | 1.0 | 3.0 | 0.00 | 0.00 | 0.00 | 77 | 1011.8 |
| 20260507100707 | 36 | 238 | 1.0 | 2.0 | 0.00 | 0.00 | 0.00 | 77 | 1011.8 |
| 20260507100207 | 37 | 238 | 1.0 | 2.0 | 0.00 | 0.00 | 0.00 | 76 | 1011.8 |
| 20260507095707 | 37 | 238 | 1.0 | 2.0 | 0.00 | 0.00 | 0.00 | 76 | 1011.8 |
| 20260507095428 | 37 | 238 | 1.0 | 2.0 | 0.00 | 0.00 | 0.00 | 75 | 1011.8 |
| 20260507094705 | 37 | 238 | 0.0 | 2.0 | 0.00 | 0.00 | 0.00 | 75 | 1011.9 |
| 20260507094205 | 37 | 238 | 0.0 | 2.0 | 0.00 | 0.00 | 0.00 | 75 | 1011.9 |
| 20260507094142 | 37 | 238 | 1.0 | 2.0 | 0.00 | 0.00 | 0.00 | 75 | 1011.9 |
| 20260507093158 | 37 | 238 | 1.0 | 2.0 | 0.00 | 0.00 | 0.00 | 74 | 1011.9 |
| 20260507092655 | 38 | 238 | 1.0 | 4.0 | 0.00 | 0.00 | 0.00 | 74 | 1011.9 |
| 20260507092154 | 38 | 238 | 1.0 | 4.0 | 0.00 | 0.00 | 0.00 | 74 | 1011.9 |
| 20260507091657 | 38 | 279 | 1.0 | 3.0 | 0.00 | 0.00 | 0.00 | 74 | 1011.9 |
| 20260507091415 | 38 | 279 | 1.0 | 2.0 | 0.00 | 0.00 | 0.00 | 74 | 1011.9 |
| 20260507090654 | 38 | 279 | 1.0 | 2.0 | 0.00 | 0.00 | 0.00 | 74 | 1011.9 |
| 20260507090155 | 38 | 279 | 0.0 | 1.0 | 0.00 | 0.00 | 0.00 | 74 | 1011.9 |
| 20260507085915 | 38 | 279 | 0.0 | 1.0 | 0.00 | 0.00 | 0.00 | 74 | 1011.9 |
| 20260507085153 | 38 | 279 | 0.0 | 0.0 | 0.00 | 0.00 | 0.00 | 73 | 1011.9 |
| 20260507084653 | 38 | 279 | 0.0 | 1.0 | 0.00 | 0.00 | 0.00 | 73 | 1011.9 |
| 20260507084150 | 38 | 279 | 0.0 | 2.0 | 0.00 | 0.00 | 0.00 | 73 | 1011.9 |
| 20260507083859 | 38 | 279 | 1.0 | 3.0 | 0.00 | 0.00 | 0.00 | 73 | 1011.9 |
| 20260507083140 | 38 | 279 | 1.0 | 3.0 | 0.00 | 0.00 | 0.00 | 73 | 1011.9 |
| 20260507082634 | 38 | 279 | 1.0 | 2.0 | 0.00 | 0.00 | 0.00 | 73 | 1011.9 |
| 20260507082123 | 38 | 279 | 0.0 | 2.0 | 0.00 | 0.00 | 0.00 | 73 | 1011.9 |
| 20260507081620 | 38 | 279 | 0.0 | 2.0 | 0.00 | 0.00 | 0.00 | 72 | 1011.9 |
| 20260507081115 | 38 | 279 | 0.0 | 0.0 | 0.00 | 0.00 | 0.00 | 72 | 1011.9 |
| 20260507080834 | 39 | 279 | 0.0 | 0.0 | 0.00 | 0.00 | 0.00 | 72 | 1011.9 |
| 20260507080317 | 39 | 279 | 0.0 | 0.0 | 0.00 | 0.00 | 0.00 | 72 | 1011.9 |
| 20260507075558 | 39 | 279 | 0.0 | 0.0 | 0.00 | 0.00 | 0.00 | 72 | 1011.9 |
| 20260507075313 | 39 | 279 | 0.0 | 0.0 | 0.00 | 0.00 | 0.00 | 72 | 1011.9 |
| 20260507075019 | 39 | 279 | 0.0 | 0.0 | 0.00 | 0.00 | 0.00 | 71 | 1011.8 |
| 20260507074040 | 39 | 279 | 0.0 | 1.0 | 0.00 | 0.00 | 0.00 | 71 | 1011.8 |
| 20260507073532 | 39 | 279 | 0.0 | 1.0 | 0.00 | 0.00 | 0.00 | 71 | 1011.8 |
| 20260507073026 | 39 | 279 | 0.0 | 1.0 | 0.00 | 0.00 | 0.00 | 71 | 1011.9 |
| 20260507072521 | 39 | 279 | 0.0 | 1.0 | 0.00 | 0.00 | 0.00 | 71 | 1011.9 |
| 20260507072232 | 39 | 279 | 0.0 | 2.0 | 0.00 | 0.00 | 0.00 | 71 | 1011.9 |
| 20260507071509 | 39 | 279 | 1.0 | 2.0 | 0.00 | 0.00 | 0.00 | 71 | 1011.9 |
| 20260507071003 | 39 | 279 | 1.0 | 2.0 | 0.00 | 0.00 | 0.00 | 71 | 1011.9 |
| 20260507070456 | 39 | 279 | 1.0 | 2.0 | 0.00 | 0.00 | 0.00 | 71 | 1011.9 |
| 20260507065951 | 39 | 279 | 1.0 | 2.0 | 0.00 | 0.00 | 0.00 | 71 | 1011.9 |
| 20260507065441 | 39 | 279 | 0.0 | 2.0 | 0.00 | 0.00 | 0.00 | 71 | 1011.9 |
| 20260507064939 | 39 | 279 | 0.0 | 2.0 | 0.00 | 0.00 | 0.00 | 71 | 1012.0 |
| 20260507064434 | 39 | 279 | 0.0 | 2.0 | 0.00 | 0.00 | 0.00 | 70 | 1012.0 |
| 20260507063926 | 39 | 279 | 0.0 | 2.0 | 0.00 | 0.00 | 0.00 | 71 | 1012.0 |
| 20260507063422 | 39 | 279 | 0.0 | 1.0 | 0.00 | 0.00 | 0.00 | 71 | 1012.1 |
| 20260507062909 | 39 | 279 | 0.0 | 1.0 | 0.00 | 0.00 | 0.00 | 70 | 1012.1 |
| 20260507062409 | 39 | 279 | 0.0 | 1.0 | 0.00 | 0.00 | 0.00 | 70 | 1012.1 |
| 20260507061907 | 40 | 279 | 0.0 | 0.0 | 0.00 | 0.00 | 0.00 | 70 | 1012.1 |
| 20260507061405 | 40 | 279 | 0.0 | 0.0 | 0.00 | 0.00 | 0.00 | 69 | 1012.1 |
| 20260507060904 | 40 | 279 | 0.0 | 0.0 | 0.00 | 0.00 | 0.00 | 68 | 1012.1 |
| 20260507060402 | 40 | 279 | 0.0 | 0.0 | 0.00 | 0.00 | 0.00 | 68 | 1012.2 |
| 20260507060126 | 40 | 279 | 0.0 | 0.0 | 0.00 | 0.00 | 0.00 | 68 | 1012.2 |
| 20260507055359 | 40 | 279 | 0.0 | 0.0 | 0.00 | 0.00 | 0.00 | 67 | 1012.2 |
| 20260507054857 | 40 | 279 | 0.0 | 0.0 | 0.00 | 0.00 | 0.00 | 66 | 1012.2 |
| 20260507054354 | 40 | 279 | 0.0 | 0.0 | 0.00 | 0.00 | 0.00 | 66 | 1012.2 |
| 20260507054118 | 41 | 279 | 0.0 | 1.0 | 0.00 | 0.00 | 0.00 | 66 | 1012.2 |
| 20260507053350 | 41 | 279 | 0.0 | 1.0 | 0.00 | 0.00 | 0.00 | 66 | 1012.3 |
| 20260507053111 | 41 | 279 | 0.0 | 1.0 | 0.00 | 0.00 | 0.00 | 66 | 1012.3 |
| 20260507052351 | 41 | 279 | 0.0 | 1.0 | 0.00 | 0.00 | 0.00 | 65 | 1012.3 |
| 20260507051849 | 41 | 279 | 0.0 | 2.0 | 0.00 | 0.00 | 0.00 | 65 | 1012.3 |
| 20260507051352 | 41 | 279 | 0.0 | 2.0 | 0.00 | 0.00 | 0.00 | 66 | 1012.3 |
| 20260507050854 | 41 | 281 | 0.0 | 1.0 | 0.00 | 0.00 | 0.00 | 65 | 1012.3 |
| 20260507050350 | 41 | 281 | 0.0 | 2.0 | 0.00 | 0.00 | 0.00 | 64 | 1012.3 |
| 20260507050330 | 41 | 281 | 0.0 | 2.0 | 0.00 | 0.00 | 0.00 | 64 | 1012.3 |
| 20260507045339 | 41 | 281 | 0.0 | 2.0 | 0.00 | 0.00 | 0.00 | 65 | 1012.3 |
| 20260507044833 | 42 | 281 | 0.0 | 2.0 | 0.00 | 0.00 | 0.00 | 64 | 1012.3 |
| 20260507044321 | 42 | 281 | 0.0 | 0.0 | 0.00 | 0.00 | 0.00 | 64 | 1012.3 |
| 20260507043822 | 42 | 281 | 0.0 | 0.0 | 0.00 | 0.00 | 0.00 | 64 | 1012.3 |
| 20260507043316 | 42 | 281 | 0.0 | 2.0 | 0.00 | 0.00 | 0.00 | 64 | 1012.1 |
| 20260507042808 | 42 | 281 | 0.0 | 2.0 | 0.00 | 0.00 | 0.00 | 63 | 1012.1 |
| 20260507042306 | 42 | 281 | 0.0 | 1.0 | 0.00 | 0.00 | 0.00 | 62 | 1012.1 |
| 20260507041754 | 42 | 281 | 0.0 | 2.0 | 0.00 | 0.00 | 0.00 | 62 | 1012.2 |
| 20260507041247 | 42 | 281 | 0.0 | 2.0 | 0.00 | 0.00 | 0.00 | 62 | 1012.2 |
| 20260507040736 | 43 | 281 | 0.0 | 0.0 | 0.00 | 0.00 | 0.00 | 62 | 1012.2 |
| 20260507040222 | 43 | 281 | 0.0 | 0.0 | 0.00 | 0.00 | 0.00 | 61 | 1012.2 |
| 20260507035944 | 43 | 281 | 0.0 | 0.0 | 0.00 | 0.00 | 0.00 | 61 | 1012.2 |
| 20260507035222 | 43 | 281 | 0.0 | 0.0 | 0.00 | 0.00 | 0.00 | 61 | 1012.2 |
| 20260507034723 | 43 | 281 | 0.0 | 0.0 | 0.00 | 0.00 | 0.00 | 60 | 1012.3 |
| 20260507034222 | 44 | 281 | 0.0 | 0.0 | 0.00 | 0.00 | 0.00 | 60 | 1012.3 |
| 20260507033722 | 44 | 281 | 0.0 | 0.0 | 0.00 | 0.00 | 0.00 | 59 | 1012.3 |
| 20260507033224 | 44 | 281 | 0.0 | 0.0 | 0.00 | 0.00 | 0.00 | 59 | 1012.3 |
| 20260507032725 | 44 | 281 | 0.0 | 0.0 | 0.00 | 0.00 | 0.00 | 58 | 1012.3 |
| 20260507032221 | 45 | 281 | 0.0 | 2.0 | 0.00 | 0.00 | 0.00 | 58 | 1012.3 |
| 20260507031720 | 45 | 281 | 0.0 | 2.0 | 0.00 | 0.00 | 0.00 | 57 | 1012.2 |
| 20260507031215 | 45 | 281 | 0.0 | 2.0 | 0.00 | 0.00 | 0.00 | 55 | 1012.2 |
| 20260507030708 | 45 | 281 | 0.0 | 2.0 | 0.00 | 0.00 | 0.00 | 55 | 1012.2 |
| 20260507030202 | 46 | 281 | 0.0 | 3.0 | 0.00 | 0.00 | 0.00 | 55 | 1012.1 |
| 20260507025653 | 46 | 281 | 1.0 | 3.0 | 0.00 | 0.00 | 0.00 | 54 | 1012.1 |
| 20260507025145 | 46 | 267 | 1.0 | 3.0 | 0.00 | 0.00 | 0.00 | 53 | 1012.1 |
| 20260507024645 | 46 | 263 | 1.0 | 3.0 | 0.00 | 0.00 | 0.00 | 53 | 1012.0 |
| 20260507024139 | 46 | 289 | 1.0 | 3.0 | 0.00 | 0.00 | 0.00 | 53 | 1012.0 |
| 20260507023631 | 47 | 288 | 2.0 | 5.0 | 0.00 | 0.00 | 0.00 | 53 | 1012.0 |
| 20260507023126 | 47 | 309 | 2.0 | 5.0 | 0.00 | 0.00 | 0.00 | 52 | 1011.9 |
| 20260507023109 | 47 | 281 | 2.0 | 5.0 | 0.00 | 0.00 | 0.00 | 51 | 1011.9 |
| 20260507022109 | 47 | 292 | 2.0 | 6.0 | 0.00 | 0.00 | 0.00 | 52 | 1011.9 |
| 20260507021831 | 47 | 317 | 2.0 | 6.0 | 0.00 | 0.00 | 0.00 | 52 | 1011.6 |
| 20260507021103 | 47 | 36 | 2.0 | 5.0 | 0.00 | 0.00 | 0.00 | 52 | 1011.6 |
| 20260507020558 | 48 | 277 | 2.0 | 5.0 | 0.00 | 0.00 | 0.00 | 51 | 1011.6 |
| 20260507020046 | 48 | 325 | 2.0 | 6.0 | 0.00 | 0.00 | 0.00 | 51 | 1011.4 |
| 20260507015541 | 48 | 263 | 2.0 | 6.0 | 0.00 | 0.00 | 0.00 | 51 | 1011.4 |
| 20260507015040 | 48 | 325 | 2.0 | 6.0 | 0.00 | 0.00 | 0.00 | 51 | 1011.4 |
| 20260507014532 | 48 | 286 | 2.0 | 6.0 | 0.00 | 0.00 | 0.00 | 49 | 1011.2 |
| 20260507014025 | 49 | 293 | 3.0 | 6.0 | 0.00 | 0.00 | 0.00 | 50 | 1011.2 |
| 20260507013522 | 49 | 343 | 3.0 | 7.0 | 0.00 | 0.00 | 0.00 | 49 | 1011.2 |
| 20260507013010 | 49 | 309 | 4.0 | 9.0 | 0.00 | 0.00 | 0.00 | 49 | 1011.2 |
| 20260507012509 | 49 | 292 | 4.0 | 10.0 | 0.00 | 0.00 | 0.00 | 48 | 1011.2 |
| 20260507011958 | 49 | 246 | 4.0 | 12.0 | 0.00 | 0.00 | 0.00 | 49 | 1011.2 |
| 20260507011455 | 50 | 272 | 4.0 | 12.0 | 0.00 | 0.00 | 0.00 | 49 | 1011.1 |
| 20260507010946 | 50 | 233 | 4.0 | 10.0 | 0.00 | 0.00 | 0.00 | 49 | 1011.1 |
| 20260507010444 | 50 | 291 | 3.0 | 10.0 | 0.00 | 0.00 | 0.00 | 48 | 1010.9 |
| 20260507005940 | 50 | 5 | 3.0 | 7.0 | 0.00 | 0.00 | 0.00 | 48 | 1010.9 |
| 20260507005428 | 50 | 324 | 2.0 | 7.0 | 0.00 | 0.00 | 0.00 | 48 | 1010.9 |
| 20260507004926 | 51 | 30 | 3.0 | 10.0 | 0.00 | 0.00 | 0.00 | 48 | 1010.9 |
| 20260507004637 | 51 | 341 | 5.0 | 13.0 | 0.00 | 0.00 | 0.00 | 47 | 1010.9 |
| 20260507003913 | 51 | 286 | 6.0 | 14.0 | 0.00 | 0.00 | 0.00 | 46 | 1010.9 |
| 20260507003408 | 52 | 342 | 5.0 | 14.0 | 0.00 | 0.00 | 0.00 | 45 | 1010.8 |
| 20260507002859 | 52 | 286 | 5.0 | 14.0 | 0.00 | 0.00 | 0.00 | 46 | 1010.8 |
| 20260507002356 | 52 | 217 | 6.0 | 16.0 | 0.00 | 0.00 | 0.00 | 45 | 1010.8 |
| 20260507002121 | 52 | 285 | 7.0 | 16.0 | 0.00 | 0.00 | 0.00 | 45 | 1010.5 |
| 20260507001601 | 53 | 327 | 6.0 | 14.0 | 0.00 | 0.00 | 0.00 | 45 | 1010.5 |
| 20260507000838 | 53 | 324 | 5.0 | 15.0 | 0.00 | 0.00 | 0.00 | 45 | 1010.5 |
| 20260507000330 | 53 | 309 | 5.0 | 15.0 | 0.00 | 0.00 | 0.00 | 45 | 1010.3 |
| 20260506235819 | 53 | 295 | 5.0 | 14.0 | 0.00 | 0.00 | 0.00 | 44 | 1010.3 |
| 20260506235310 | 53 | 314 | 6.0 | 14.0 | 0.00 | 0.00 | 0.00 | 45 | 1010.3 |
| 20260506234808 | 53 | 250 | 7.0 | 15.0 | 0.00 | 0.00 | 0.00 | 44 | 1010.2 |
| 20260506234309 | 53 | 241 | 6.0 | 15.0 | 0.00 | 0.00 | 0.00 | 44 | 1010.2 |
| 20260506233809 | 53 | 267 | 6.0 | 21.0 | 0.00 | 0.00 | 0.00 | 45 | 1010.2 |
| 20260506233529 | 53 | 250 | 6.0 | 21.0 | 0.00 | 0.00 | 0.00 | 43 | 1010.2 |
| 20260506232809 | 54 | 300 | 5.0 | 13.0 | 0.00 | 0.00 | 0.00 | 43 | 1010.2 |
| 20260506232308 | 54 | 292 | 5.0 | 12.0 | 0.00 | 0.00 | 0.00 | 43 | 1010.2 |
| 20260506231811 | 54 | 315 | 5.0 | 12.0 | 0.00 | 0.00 | 0.00 | 43 | 1010.1 |
| 20260506231313 | 54 | 308 | 6.0 | 14.0 | 0.00 | 0.00 | 0.00 | 43 | 1010.1 |
| 20260506230809 | 54 | 215 | 6.0 | 14.0 | 0.00 | 0.00 | 0.00 | 43 | 1010.1 |
| 20260506230258 | 54 | 269 | 4.0 | 12.0 | 0.00 | 0.00 | 0.00 | 42 | 1009.8 |
| 20260506225755 | 55 | 225 | 5.0 | 13.0 | 0.00 | 0.00 | 0.00 | 42 | 1009.8 |
| 20260506225249 | 55 | 292 | 5.0 | 13.0 | 0.00 | 0.00 | 0.00 | 42 | 1009.8 |
| 20260506224736 | 55 | 325 | 5.0 | 13.0 | 0.00 | 0.00 | 0.00 | 42 | 1009.9 |
| 20260506224235 | 55 | 214 | 5.0 | 12.0 | 0.00 | 0.00 | 0.00 | 42 | 1009.9 |
| 20260506223731 | 55 | 274 | 6.0 | 12.0 | 0.00 | 0.00 | 0.00 | 43 | 1009.9 |
| 20260506223225 | 55 | 246 | 7.0 | 16.0 | 0.00 | 0.00 | 0.00 | 42 | 1009.8 |
| 20260506222718 | 55 | 284 | 6.0 | 14.0 | 0.00 | 0.00 | 0.00 | 41 | 1009.8 |
| 20260506222212 | 56 | 250 | 6.0 | 14.0 | 0.00 | 0.00 | 0.00 | 43 | 1009.8 |
| 20260506221707 | 55 | 283 | 6.0 | 14.0 | 0.00 | 0.00 | 0.00 | 42 | 1009.8 |
| 20260506221429 | 55 | 298 | 5.0 | 12.0 | 0.00 | 0.00 | 0.00 | 42 | 1009.8 |
| 20260506220654 | 55 | 49 | 5.0 | 15.0 | 0.00 | 0.00 | 0.00 | 41 | 1009.8 |
| 20260506220149 | 55 | 233 | 6.0 | 15.0 | 0.00 | 0.00 | 0.00 | 41 | 1009.8 |
| 20260506215642 | 56 | 263 | 7.0 | 13.0 | 0.00 | 0.00 | 0.00 | 41 | 1009.8 |
| 20260506215136 | 56 | 267 | 8.0 | 15.0 | 0.00 | 0.00 | 0.00 | 41 | 1009.8 |
| 20260506214847 | 56 | 304 | 7.0 | 15.0 | 0.00 | 0.00 | 0.00 | 41 | 1009.7 |
| 20260506214123 | 56 | 228 | 6.0 | 13.0 | 0.00 | 0.00 | 0.00 | 41 | 1009.7 |
| 20260506213617 | 56 | 320 | 7.0 | 25.0 | 0.00 | 0.00 | 0.00 | 42 | 1009.7 |
| 20260506213111 | 56 | 269 | 9.0 | 25.0 | 0.00 | 0.00 | 0.00 | 40 | 1009.7 |
| 20260506212605 | 56 | 246 | 8.0 | 17.0 | 0.00 | 0.00 | 0.00 | 40 | 1009.7 |
| 20260506212059 | 56 | 247 | 8.0 | 16.0 | 0.00 | 0.00 | 0.00 | 39 | 1009.7 |
| 20260506211553 | 56 | 284 | 7.0 | 15.0 | 0.00 | 0.00 | 0.00 | 41 | 1009.7 |
| 20260506211043 | 57 | 290 | 7.0 | 17.0 | 0.00 | 0.00 | 0.00 | 40 | 1009.7 |
| 20260506210541 | 56 | 263 | 7.0 | 17.0 | 0.00 | 0.00 | 0.00 | 41 | 1009.7 |
| 20260506210040 | 56 | 267 | 7.0 | 16.0 | 0.00 | 0.00 | 0.00 | 41 | 1009.8 |
| 20260506205540 | 56 | 271 | 7.0 | 16.0 | 0.00 | 0.00 | 0.00 | 41 | 1009.8 |
| 20260506205040 | 56 | 237 | 6.0 | 15.0 | 0.00 | 0.00 | 0.00 | 40 | 1009.8 |
| 20260506204540 | 56 | 291 | 7.0 | 15.0 | 0.00 | 0.00 | 0.00 | 43 | 1009.8 |
| 20260506204310 | 56 | 289 | 7.0 | 14.0 | 0.00 | 0.00 | 0.00 | 42 | 1009.8 |
| 20260506203540 | 56 | 263 | 6.0 | 14.0 | 0.00 | 0.00 | 0.00 | 40 | 1009.8 |
| 20260506203041 | 56 | 238 | 6.0 | 14.0 | 0.00 | 0.00 | 0.00 | 41 | 1009.9 |
| 20260506202801 | 56 | 248 | 5.0 | 13.0 | 0.00 | 0.00 | 0.00 | 42 | 1009.9 |
| 20260506202043 | 55 | 221 | 5.0 | 14.0 | 0.00 | 0.00 | 0.00 | 44 | 1009.9 |
| 20260506201544 | 55 | 278 | 6.0 | 15.0 | 0.00 | 0.00 | 0.00 | 42 | 1010.2 |
| 20260506201040 | 55 | 244 | 6.0 | 15.0 | 0.00 | 0.00 | 0.00 | 44 | 1010.2 |
| 20260506200540 | 56 | 271 | 6.0 | 14.0 | 0.00 | 0.00 | 0.00 | 45 | 1010.2 |
| 20260506200040 | 55 | 259 | 6.0 | 14.0 | 0.00 | 0.00 | 0.00 | 44 | 1010.3 |
| 20260506195539 | 55 | 286 | 6.0 | 17.0 | 0.00 | 0.00 | 0.00 | 44 | 1010.3 |
| 20260506195039 | 55 | 219 | 6.0 | 17.0 | 0.00 | 0.00 | 0.00 | 44 | 1010.3 |
| 20260506194802 | 55 | 160 | 6.0 | 13.0 | 0.00 | 0.00 | 0.00 | 44 | 1010.3 |
| 20260506194022 | 55 | 311 | 6.0 | 13.0 | 0.00 | 0.00 | 0.00 | 45 | 1010.3 |
| 20260506193511 | 55 | 254 | 7.0 | 14.0 | 0.00 | 0.00 | 0.00 | 44 | 1010.3 |
| 20260506193012 | 55 | 227 | 7.0 | 19.0 | 0.00 | 0.00 | 0.00 | 45 | 1010.3 |
| 20260506192512 | 55 | 252 | 6.0 | 19.0 | 0.00 | 0.00 | 0.00 | 45 | 1010.3 |
| 20260506192012 | 54 | 264 | 5.0 | 11.0 | 0.00 | 0.00 | 0.00 | 48 | 1010.3 |
| 20260506191512 | 54 | 254 | 6.0 | 11.0 | 0.00 | 0.00 | 0.00 | 48 | 1010.5 |
| 20260506191011 | 54 | 217 | 6.0 | 14.0 | 0.00 | 0.00 | 0.00 | 49 | 1010.5 |
| 20260506190732 | 54 | 265 | 5.0 | 14.0 | 0.00 | 0.00 | 0.00 | 47 | 1010.5 |
| 20260506190016 | 54 | 315 | 6.0 | 14.0 | 0.00 | 0.00 | 0.00 | 48 | 1010.5 |
| 20260506185511 | 54 | 246 | 6.0 | 14.0 | 0.00 | 0.00 | 0.00 | 46 | 1010.5 |
| 20260506185500 | 54 | 235 | 4.0 | 10.0 | 0.00 | 0.00 | 0.00 | 48 | 1010.5 |
| 20260506184504 | 54 | 287 | 5.0 | 13.0 | 0.00 | 0.00 | 0.00 | 48 | 1010.3 |
| 20260506183958 | 54 | 227 | 6.0 | 13.0 | 0.00 | 0.00 | 0.00 | 46 | 1010.3 |
| 20260506183452 | 53 | 226 | 7.0 | 13.0 | 0.00 | 0.00 | 0.00 | 46 | 1010.3 |
| 20260506182941 | 54 | 234 | 6.0 | 13.0 | 0.00 | 0.00 | 0.00 | 46 | 1010.3 |
| 20260506182440 | 54 | 285 | 5.0 | 17.0 | 0.00 | 0.00 | 0.00 | 47 | 1010.3 |
| 20260506181934 | 55 | 266 | 5.0 | 17.0 | 0.00 | 0.00 | 0.00 | 47 | 1010.4 |
| 20260506181428 | 54 | 213 | 6.0 | 11.0 | 0.00 | 0.00 | 0.00 | 45 | 1010.4 |
| 20260506181141 | 55 | 236 | 5.0 | 11.0 | 0.00 | 0.00 | 0.00 | 44 | 1010.4 |
| 20260506180641 | 55 | 254 | 4.0 | 12.0 | 0.00 | 0.00 | 0.00 | 45 | 1010.5 |
| 20260506180353 | 55 | 333 | 4.0 | 12.0 | 0.00 | 0.00 | 0.00 | 43 | 1010.5 |
| 20260506175359 | 55 | 236 | 4.0 | 10.0 | 0.00 | 0.00 | 0.00 | 45 | 1010.5 |
| 20260506174858 | 54 | 273 | 5.0 | 12.0 | 0.00 | 0.00 | 0.00 | 43 | 1010.8 |
| 20260506174352 | 54 | 232 | 6.0 | 17.0 | 0.00 | 0.00 | 0.00 | 44 | 1010.8 |
| 20260506173846 | 54 | 263 | 6.0 | 17.0 | 0.00 | 0.00 | 0.00 | 44 | 1010.8 |
| 20260506173340 | 54 | 218 | 5.0 | 13.0 | 0.00 | 0.00 | 0.00 | 43 | 1010.8 |
| 20260506172829 | 54 | 282 | 5.0 | 12.0 | 0.00 | 0.00 | 0.00 | 43 | 1010.8 |
| 20260506172328 | 54 | 204 | 5.0 | 14.0 | 0.00 | 0.00 | 0.00 | 42 | 1010.8 |
| 20260506171823 | 54 | 286 | 5.0 | 14.0 | 0.00 | 0.00 | 0.00 | 41 | 1010.7 |
| 20260506171319 | 55 | 282 | 4.0 | 11.0 | 0.00 | 0.00 | 0.00 | 42 | 1010.7 |
| 20260506170811 | 54 | 258 | 4.0 | 10.0 | 0.00 | 0.00 | 0.00 | 45 | 1010.7 |
| 20260506170300 | 54 | 245 | 5.0 | 10.0 | 0.00 | 0.00 | 0.00 | 42 | 1010.4 |
| 20260506165759 | 54 | 236 | 5.0 | 15.0 | 0.00 | 0.00 | 0.00 | 42 | 1010.4 |
| 20260506165512 | 54 | 317 | 5.0 | 15.0 | 0.00 | 0.00 | 0.00 | 41 | 1010.4 |
| 20260506164745 | 54 | 300 | 5.0 | 10.0 | 0.00 | 0.00 | 0.00 | 43 | 1010.4 |
| 20260506164240 | 54 | 5 | 4.0 | 10.0 | 0.00 | 0.00 | 0.00 | 42 | 1010.4 |
| 20260506163729 | 54 | 338 | 4.0 | 10.0 | 0.00 | 0.00 | 0.00 | 43 | 1010.4 |
| 20260506163227 | 53 | 284 | 5.0 | 10.0 | 0.00 | 0.00 | 0.00 | 43 | 1010.3 |
| 20260506162950 | 54 | 205 | 5.0 | 10.0 | 0.00 | 0.00 | 0.00 | 42 | 1010.3 |
| 20260506162216 | 54 | 316 | 5.0 | 10.0 | 0.00 | 0.00 | 0.00 | 42 | 1010.3 |
| 20260506161710 | 54 | 338 | 5.0 | 10.0 | 0.00 | 0.00 | 0.00 | 44 | 1010.3 |
| 20260506161204 | 54 | 279 | 4.0 | 8.0 | 0.00 | 0.00 | 0.00 | 44 | 1010.3 |
| 20260506160659 | 53 | 241 | 4.0 | 9.0 | 0.00 | 0.00 | 0.00 | 44 | 1010.3 |
| 20260506160420 | 53 | 281 | 5.0 | 9.0 | 0.00 | 0.00 | 0.00 | 43 | 1010.3 |
| 20260506155917 | 53 | 261 | 4.0 | 9.0 | 0.00 | 0.00 | 0.00 | 44 | 1010.3 |
| 20260506155156 | 53 | 271 | 4.0 | 8.0 | 0.00 | 0.00 | 0.00 | 44 | 1010.3 |
| 20260506154657 | 53 | 11 | 4.0 | 8.0 | 0.00 | 0.00 | 0.00 | 45 | 1010.3 |
| 20260506154157 | 53 | 220 | 4.0 | 7.0 | 0.00 | 0.00 | 0.00 | 47 | 1010.3 |
| 20260506153657 | 53 | 209 | 3.0 | 8.0 | 0.00 | 0.00 | 0.00 | 47 | 1010.3 |
| 20260506153157 | 53 | 256 | 3.0 | 8.0 | 0.00 | 0.00 | 0.00 | 47 | 1010.3 |
| 20260506152921 | 53 | 263 | 3.0 | 7.0 | 0.00 | 0.00 | 0.00 | 47 | 1010.3 |
| 20260506152156 | 53 | 355 | 3.0 | 7.0 | 0.00 | 0.00 | 0.00 | 49 | 1010.3 |